Orbital Elements at Epoch 2459200.5 (2020-Dec-17.0) TDB
Reference: JPL 4 (heliocentric ecliptic J2000)
Element | Value | Uncertainty (1-sigma) | Units |
e | .5445844670834085 | 0.0011522 | |
a | .7773726212338765 | 5.1471e-05 | au |
q | .3540275665739935 | 0.00091916 | au |
i | 2.536710258321798 | 0.010016 | deg |
node | 149.5381968968403 | 0.069828 | deg |
peri | 188.4326524859896 | 0.057723 | deg |
M | 24.32620296237218 | 0.4559 | deg |
tp | 2459183.583359764073 (2020-Nov-30.08335976) | 0.31535 | TDB |
period | 250.3469404721137 0.69 | 0.024864 6.807e-05 | d yr |
n | 1.438004392308923 | 0.00014282 | deg/d |
Q | 1.200717675893759 | 7.9502e-05 | au |
|
| | Orbit Determination Parameters
Additional Information
|